www.pogodaiklimat.ru

Погода и климат >> Архив погоды >> Румыния >> Шири


ПОГОДА в Шири

  • Прогноз погоды в Шири
  • Монитор погоды в Шири

АРХИВ ПОГОДЫ в Шири

Время (UTC), дата Ветер
(напр.,м/с)
 
Видим.   Явления Облачность Т
(С)
Тd
(С)
f
(%)
Тe
(С)
Тes
(С)
Комфортность P
(гПа)
Po
(гПа)
Тmin
(С)
Tmax
(С)
R
(мм)
R24
(мм)
S
(см)
12 15.05 Ю 6
{9}
н/о н/о +8.5 +8.5 100 +4 +4 1014.6 957.9
15 15.05 Ю 5
{8}
н/о н/о +8.2 +7.6 96 +4 +4 1015.2 958.4
18 15.05 ЮВ 2
{3}
н/о н/о +8.2 +6.9 92 +6 +6 1015.4 958.6 +6.5 +9.2
21 15.05 Ю 3
{5}
н/о н/о +7.8 +7.3 97 +5 +5 1016.8 959.8
00 16.05 Ю 1
{3}
н/о н/о +7.5 +5.9 90 +7 +7 1016.3 959.3
03 16.05 З 1
{3}
н/о н/о +6.7 +5.4 91 +6 +6 1015.5 958.4
06 16.05 С 2
{3}
н/о н/о +8.2 +6.9 92 +6 +6 1015.4 958.6 +6.7 +8.3
09 16.05 С 2
{5}
н/о н/о +9.3 +7.5 89 +8 +8 1015.1 958.5
12 16.05 С 2
{5}
н/о н/о +11.2 +8.6 84 +10 +10 1014.2 958.0
15 16.05 С 2
{5}
н/о н/о +11.9 +9.6 86 +11 +11 1013.3 957.3
18 16.05 С 2
{3}
н/о н/о +11.0 +10.0 94 +10 +10 1013.3 957.2 +8.2 +12.8
21 16.05 С 2
{4}
н/о н/о +10.8 +9.9 94 +9 +9 1013.7 957.5
00 17.05 С 4
{7}
н/о н/о +9.1 +8.5 96 +6 +6 1013.7 957.2
03 17.05 С 5
{8}
н/о н/о +8.4 +7.7 95 +5 +5 1013.2 956.6
06 17.05 СВ 2
{7}
н/о н/о +10.3 +7.8 84 +9 +9 1014.0 957.7 +8.4 +11.0
09 17.05 С 2
{4}
н/о н/о +11.2 +9.5 89 +10 +10 1014.6 958.4
12 17.05 СЗ 2
{5}
н/о н/о +13.4 +10.9 85 +13 +13 1013.6 958.0
15 17.05 СЗ 2
{5}
н/о н/о +14.9 +11.4 80 +15 +15 1013.2 957.8
18 17.05 СЗ 2
{3}
н/о н/о +13.7 +10.9 83 +13 +13 1012.8 957.2 +10.1 +17.4
21 17.05 З 2
{3}
н/о н/о +12.6 +10.7 88 +12 +12 1013.2 957.4
00 18.05 С 3
{5}
н/о н/о +12.3 +9.7 84 +11 +11 1012.9 957.0
03 18.05 СВ 3
{5}
н/о н/о +12.5 +9.7 83 +11 +11 1011.8 956.1
06 18.05 ЮВ 1
{5}
н/о н/о +15.4 +11.2 76 +16 +16 1010.9 955.8 +12.0 +15.7
09 18.05 С 2
{3}
н/о н/о +15.9 +12.6 81 +16 +16 1011.2 956.1
12 18.05 З 2
{5}
н/о н/о +20.6 +13.1 62 +24 +24 комфорт 1009.5 955.4
15 18.05 З 2
{6}
н/о н/о +21.7 +11.5 52 +24 +24 комфорт 1007.6 953.8
18 18.05 С 2
{3}
н/о н/о +18.8 +11.8 64 +20 +20 1008.0 953.6 +14.6 +23.4
21 18.05 В 3
{5}
н/о н/о +17.9 +10.6 62 +18 +18 1008.3 953.7
00 19.05 ЮВ 4
{7}
н/о н/о +17.7 +10.8 64 +17 +17 1007.6 953.1
03 19.05 ЮЗ 1
{6}
н/о н/о +14.6 +10.6 77 +15 +15 1008.2 953.0 3
06 19.05 Ю 6
{8}
н/о н/о +15.9 +11.6 76 +15 +15 1008.2 953.3 +12.1 +18.7
09 19.05 Ю 3
{7}
н/о н/о +20.3 +12.2 60 +23 +23 комфорт 1007.7 953.6
12 19.05 С 3
{5}
н/о н/о +22.1 +14.0 60 +25 +25 комфорт 1006.2 952.5
15 19.05 ЮВ 6
{11}
н/о н/о +18.1 +14.7 81 +18 +18 1006.5 952.0 1
18 19.05 СВ 5
{7}
н/о н/о +18.0 +14.4 79 +18 +18 1003.8 949.5 +15.9 +23.8
21 19.05 ЮВ 11
{16}
н/о н/о +19.9 +10.8 56 +20 +20 1001.8 948.0
00 20.05 В 3
{13}
н/о н/о +11.8 +11.7 99 +10 +10 1006.9 951.3 13
03 20.05 Ю 10
{14}
н/о н/о +12.9 +10.9 88 +10 +10 1005.8 950.5 1
06 20.05 Ю 7
{12}
н/о н/о +13.4 +11.6 89 +11 +11 1007.2 951.9 +11.4 +20.1
09 20.05 Ю 6
{8}
н/о н/о +16.1 +11.8 76 +15 +15 1008.0 953.2
12 20.05 Ю 4
{6}
н/о н/о +18.8 +10.5 59 +19 +19 1007.6 953.2
15 20.05 ЮЗ 5
{7}
н/о н/о +17.6 +11.1 66 +17 +17 1007.3 952.8
18 20.05 Ю 6
{8}
н/о н/о +15.9 +8.2 60 +15 +15 1007.0 952.1 +13.4 +21.3 0.4
21 20.05 Ю 10
{15}
н/о н/о +12.9 +10.5 85 +10 +10 1008.1 952.6
00 21.05 Ю 4
{8}
н/о н/о +10.7 +9.5 92 +8 +8 1009.7 953.7 3
03 21.05 Ю 5
{9}
н/о н/о +11.2 +9.7 90 +8 +8 1009.2 953.3 2
06 21.05 Ю 7
{12}
н/о н/о +11.0 +9.8 92 +7 +7 1009.9 954.0 +10.1 +15.8 1
09 21.05 Ю 7
{11}
н/о н/о +16.2 +11.1 72 +15 +15 1009.9 955.0
12 21.05 Ю 9
{13}
н/о н/о +18.4 +9.8 57 +18 +18 1009.5 955.0
15 21.05 Ю 8
{12}
н/о н/о +17.4 +8.6 56 +16 +16 1009.6 954.9
18 21.05 ЮЗ 8
{11}
н/о н/о +15.8 +8.7 63 +14 +14 1010.0 954.9 +11.0 +19.4
21 21.05 ЮЗ 8
{10}
н/о н/о +13.2 +8.1 71 +10 +10 1011.8 956.1
00 22.05 Ю 8
{11}
н/о н/о +11.1 +8.7 85 +7 +7 1012.0 955.9
03 22.05 Ю 8
{10}
н/о н/о +11.3 +9.5 89 +8 +8 1011.6 955.6
06 22.05 Ю 10
{14}
н/о н/о +12.5 +9.9 84 +9 +9 1011.4 955.7 +10.9 +15.8
09 22.05 ЮЗ 10
{15}
н/о н/о +15.3 +11.5 78 +13 +13 1011.3 956.1

 

Местоположение метеостанции Шири (Румыния): широта 46.25 долгота 21.65 высота над уровнем моря 473 м.

В архиве по умолчанию представлена погода в Шири за последнюю неделю. Архивные данные за месяц целиком и за предыдущие месяцы, начиная с января 2011 года, Вы можете получить, выбрав интересующий диапазон дат из раскрывающегося списка и нажав кнопку "Ввод!".


*Определитесь, кто Вы:
робот инопланетянин человек

Внимание! Время в таблицах - всемирное. Для получения местного времени необходимо прибавить поправку, которая равна 2 ч.

Смотрите также архив погоды в соседних городах и на ближайших метеорологических станциях:

Погода в Араде (Румыния) (27 км)
Погода в Кишинеу-Криш (Румыния) (32 км)
Погода в Варадия де Муреш (Румыния) (46 км)
Погода в Гурахонте (Румыния) (52 км)
Погода в Думбравита де Кодру (Румыния) (58 км)
Погода в Бекешчабе (Венгрия) (60 км)
Погода в Тимишоаре (Румыния) (62 км)
Погода в Лугоже (Румыния) (67 км)
Погода в Холоде (Румыния) (69 км)
Погода в Штее (Румыния) (70 км)

Пояснения к столбцам:

Ветер - указаны скорость ветра в м/с - средняя за 10 мин, порывы в срок и между сроками (в фигурных скобках) и направление, откуда дует ветер: С - северный, СВ - северо-восточный, В - восточный, ЮВ - юго-восточный, Ю - южный, ЮЗ - юго-западный, З - западный, СЗ - северо-западный.
Видимость - горизонтальная дальность видимости в метрах или километрах. При видимости от 1 до 10 км при отсутствии осадков обычно наблюдается дымка, при ухудшении видимости до 1 км и менее - туман. В сухую погоду видимость может ухудшаться дымом, пылью или мглою.
Явления - указаны атмосферные явления, наблюдавшиеся в срок или в последний час перед сроком; фигурными скобками обозначены явления, наблюдавшиеся между сроками (за 1-3 часа до срока); квадратными скобками обозначены град или гололедные отложения с указанием их диаметра в мм.
Облачность - указаны через наклонную черту общая и нижняя облачность в баллах и высота нижней границы облаков в метрах; квадратными скобками обозначены формы облаков: Ci - перистые, Cs - перисто-слоистые, Cc - перисто-кучевые, Ac - высококучевые, As - высокослоистые, Sc - слоисто-кучевые, Ns - слоисто-дождевые, Cu - кучевые, Cb - кучево-дождевые. Подробнее классификацию облаков см. в Атласе облаков (PDF).
T - Температура воздуха - температура, измеренная на высоте 2 м над землей.
Td - Температура точки росы - температура, при понижении до которой содержащийся в воздухе водяной пар достигнет насыщения.
f - Относительная влажность воздуха - влажноcть воздуха, измеренная на высоте 2 м над землей.
Te - Эффективная температура - температура, которую ощущает одетый по сезону человек в тени. Характеристика душности погоды. При расчете учитывается влияние влажности воздуха и скорости ветра на теплоощущения человека.
Tes - Эффективная температура на солнце - температура, которую ощущает человек, с поправкой на солнечный нагрев. Характеристика знойности погоды. Зависит от высоты солнца над горизонтом, облачности и скорости ветра. Ночью, в пасмурную погоду, а также при ветре 12 м/с и более поправка равна нулю.
P - Атмосферное давление - приведенное к уровню моря атмосферное давление.
Po - Атмосферное давление - измеренное на уровне метеостанции атмосферное давление.
Tmin - Минимальная температура - минимум температуры воздуха на высоте 2 м над землей.
Tmax - Максимальная температура - максимум температуры воздуха на высоте 2 м над землей.
R - Количество осадков - Количество выпавших осадков за период времени, мм. При наведении курсора мыши на число - период времени, за который выпало указанное количество осадков.
R24 - Количество осадков - Количество выпавших осадков за 24 часа, мм.
S - Снежный покров - Высота снежного покрова, см. При наведении курсора мыши на число - состояние снежного покрова и степень покрытия местности в баллах.